User: anonymous   Login
Location: Drummondville
(45.8830°N, 72.4830°W)
Time: 00:14:00
(UTC-04:00)
Language:

ITUPSAT 1 - Orbit

View from above orbital plane
View from above orbital plane
View from above satellite
View from above satellite

Ground track
Ground track

The orbit data is extracted from the following two-line orbital elements,

1 35935U 09051E   18203.37361277  .00000084  00000-0  30371-4 0  9990
2 35935  98.5647 357.2098 0009380 108.7989 251.4226 14.55454872468445
Epoch (UTC): 22 July 2018 08:58:00
Eccentricity: 0.0009380
inclination: 98.5647°
perigee height: 701 km
apogee height: 714 km
right ascension of ascending node: 357.2098°
argument of perigee: 108.7989°
revolutions per day: 14.55454872
mean anomaly at epoch: 251.4226°
orbit number at epoch: 46844

The dashed part of the orbit path shows where the satellite is in the earth's shadow,  

DLR